DAAG Airport Information

Runway Information
Runway 05 Length 11483 ft width 197 ft
Elevation 72 ft Threshold 0 ft Heading 53
Runway 23 Length 11483 ft Width 197 ft
Elevation 82 ft Threshold 0 ft Heading 233
Runway 09 Length 11483 ft width 148 ft
Elevation 56 ft Threshold 0 ft Heading 92
Runway 27 Length 11483 ft Width 148 ft
Elevation 82 ft Threshold 0 ft Heading 272
Airport Frequencies
Type APP Name ALGER APP Frequency 121.4 MHZ
Type GND Name ALGER GND Frequency 121.8 MHZ
Type TWR Name ALGER TWR Frequency 118.7 MHZ
Airport Navaids
Type VOR-DME Name Alger Frequency 112500 KHZ
Type NDB Name Houari Boumediene Frequency 416 KHZ
Type VOR Name Alger Frequency 113900 KHZ
Type NDB Name Houari Boumediene Frequency 370 KHZ
Airport Weather Information & NOTAM
DAAG 031230Z 02012KT 9999 FEW023 29/21 Q1017